This is the latest recevied weather packets stored in our database for station/object VU3IZK-13. If no packets are shown the sender has not sent any weather packets the latest 10 day(s).
| Time | Temp. | Humidity | Pressure | Rain* | Wind** | Luminosity | Snow |
|---|---|---|---|---|---|---|---|
| 1777896023 | 32.22° C | 35% | 0 hPa | 0 mm | - | - | - |
| 1777895142 | 32.78° C | 34% | 0 hPa | 0 mm | - | - | - |
| 1777894220 | 33.33° C | 34% | 0 hPa | 0 mm | - | - | - |
| 1777893320 | 33.89° C | 32% | 0 hPa | 0 mm | - | - | - |
| 1777892445 | 33.89° C | 33% | 0 hPa | 0 mm | - | - | - |
| 1777891521 | 33.33° C | 32% | 0 hPa | 0 mm | - | - | - |
| 1777889733 | 33.89° C | 35% | 0 hPa | 0 mm | - | - | - |
| 1777888813 | 33.89° C | 35% | 0 hPa | 0 mm | - | - | - |
| 1777887013 | 33.89° C | 37% | 0 hPa | 0 mm | - | - | - |
| 1777886132 | 33.89° C | 36% | 0 hPa | 0 mm | - | - | - |
| 1777885209 | 33.33° C | 38% | 0 hPa | 0 mm | - | - | - |
| 1777884307 | 33.33° C | 36% | 0 hPa | 0 mm | - | - | - |
| 1777883430 | 33.33° C | 39% | 0 hPa | 0 mm | - | - | - |
| 1777882503 | 33.33° C | 39% | 0 hPa | 0 mm | - | - | - |
| 1777881604 | 32.78° C | 42% | 0 hPa | 0 mm | - | - | - |
| 1777879823 | 32.22° C | 44% | 0 hPa | 0 mm | - | - | - |
| 1777878946 | 32.22° C | 43% | 0 hPa | 0 mm | - | - | - |
| 1777878022 | 31.67° C | 47% | 0 hPa | 0 mm | - | - | - |
| 1777877115 | 31.67° C | 48% | 0 hPa | 0 mm | - | - | - |
| 1777876240 | 31.67° C | 54% | 0 hPa | 0 mm | - | - | - |
| 1777875339 | 30° C | 56% | 0 hPa | 0 mm | - | - | - |
| 1777873517 | 30° C | 58% | 0 hPa | 0 mm | - | - | - |
| 1777872636 | 29.44° C | 55% | 0 hPa | 0 mm | - | - | - |
| 1777871716 | 28.89° C | 63% | 0 hPa | 0 mm | - | - | - |
| 1777870808 | 28.89° C | 61% | 0 hPa | 0 mm | - | - | - |
* Rain latest hour (hover to see other rain measurements)
** Current wind speed in m/s (hover to see current wind gust speed)